Time,TemperatureF,DewpointF,PressureIn,WindDirection,WindDirectionDegrees,WindSpeedMPH,WindSpeedGustMPH,Humidity,HourlyPrecipIn,Conditions,Clouds,dailyrainin,SolarRadiationWatts/m^2,SoftwareType,DateUTC
2013-05-14 00:03:00,52.4,30.0,30.06,SE,146,1.0,6.0,42,0.00,,,0.00,0,HR-IXP-WINDi_r2_v1.2,2013-05-14 05:03:00,
2013-05-14 00:08:00,52.4,29.4,30.06,SSE,155,0.0,6.0,41,0.00,,,0.00,0,HR-IXP-WINDi_r2_v1.2,2013-05-14 05:08:00,
2013-05-14 00:13:00,52.4,29.4,30.05,SSE,165,0.0,6.0,41,0.00,,,0.00,0,HR-IXP-WINDi_r2_v1.2,2013-05-14 05:13:00,
2013-05-14 00:18:00,52.4,29.4,30.05,SE,126,4.0,6.0,41,0.00,,,0.00,0,HR-IXP-WINDi_r2_v1.2,2013-05-14 05:18:00,
2013-05-14 00:24:00,52.4,29.4,30.05,South,179,0.0,6.0,41,0.00,,,0.00,0,HR-IXP-WINDi_r2_v1.2,2013-05-14 05:24:00,
2013-05-14 00:29:00,52.4,30.0,30.04,South,181,3.0,8.0,42,0.00,,,0.00,0,HR-IXP-WINDi_r2_v1.2,2013-05-14 05:29:00,
2013-05-14 00:34:00,52.3,29.9,30.04,SE,126,0.0,8.0,42,0.00,,,0.00,0,HR-IXP-WINDi_r2_v1.2,2013-05-14 05:34:00,
2013-05-14 00:39:00,52.3,29.9,30.04,SSE,162,0.0,8.0,42,0.00,,,0.00,0,HR-IXP-WINDi_r2_v1.2,2013-05-14 05:39:00,
2013-05-14 00:44:00,52.2,30.4,30.04,SSE,148,4.0,8.0,43,0.00,,,0.00,0,HR-IXP-WINDi_r2_v1.2,2013-05-14 05:44:00,
2013-05-14 00:49:00,52.1,30.3,30.03,SSE,161,1.0,5.0,43,0.00,,,0.00,0,HR-IXP-WINDi_r2_v1.2,2013-05-14 05:49:00,
2013-05-14 00:54:00,52.0,30.2,30.03,South,171,2.0,8.0,43,0.00,,,0.00,0,HR-IXP-WINDi_r2_v1.2,2013-05-14 05:54:00,
2013-05-14 01:00:00,51.9,30.1,30.03,SE,142,1.0,8.0,43,0.00,,,0.00,0,HR-IXP-WINDi_r2_v1.2,2013-05-14 06:00:00,
2013-05-14 01:05:00,51.7,29.9,30.03,ESE,119,0.0,7.0,43,0.00,,,0.00,0,HR-IXP-WINDi_r2_v1.2,2013-05-14 06:05:00,
2013-05-14 01:10:00,51.5,30.3,30.02,SSE,153,4.0,7.0,44,0.00,,,0.00,0,HR-IXP-WINDi_r2_v1.2,2013-05-14 06:10:00,
2013-05-14 01:15:00,51.4,30.7,30.02,SE,134,1.0,5.0,45,0.00,,,0.00,0,HR-IXP-WINDi_r2_v1.2,2013-05-14 06:15:00,
2013-05-14 01:20:00,51.4,30.7,30.02,SE,131,2.0,6.0,45,0.00,,,0.00,0,HR-IXP-WINDi_r2_v1.2,2013-05-14 06:20:00,
2013-05-14 01:25:00,51.4,30.7,30.02,SSE,160,0.0,6.0,45,0.00,,,0.00,0,HR-IXP-WINDi_r2_v1.2,2013-05-14 06:25:00,
2013-05-14 01:31:00,51.2,30.6,30.02,SSE,160,1.0,6.0,45,0.00,,,0.00,0,HR-IXP-WINDi_r2_v1.2,2013-05-14 06:31:00,
2013-05-14 01:36:00,51.1,30.5,30.01,SE,145,0.0,6.0,45,0.00,,,0.00,0,HR-IXP-WINDi_r2_v1.2,2013-05-14 06:36:00,
2013-05-14 01:41:00,50.9,30.8,30.00,SSE,161,1.0,6.0,46,0.00,,,0.00,0,HR-IXP-WINDi_r2_v1.2,2013-05-14 06:41:00,
2013-05-14 01:46:00,50.8,31.3,30.00,SSE,166,5.0,7.0,47,0.00,,,0.00,0,HR-IXP-WINDi_r2_v1.2,2013-05-14 06:46:00,
2013-05-14 01:51:00,50.7,31.2,30.00,South,171,0.0,7.0,47,0.00,,,0.00,0,HR-IXP-WINDi_r2_v1.2,2013-05-14 06:51:00,
2013-05-14 01:56:00,50.6,31.6,30.00,SSE,148,2.0,7.0,48,0.00,,,0.00,0,HR-IXP-WINDi_r2_v1.2,2013-05-14 06:56:00,
2013-05-14 02:02:00,50.6,31.6,30.00,SSE,149,2.0,5.0,48,0.00,,,0.00,0,HR-IXP-WINDi_r2_v1.2,2013-05-14 07:02:00,
2013-05-14 02:07:00,50.6,32.1,30.00,South,175,1.0,6.0,49,0.00,,,0.00,0,HR-IXP-WINDi_r2_v1.2,2013-05-14 07:07:00,
2013-05-14 02:12:00,50.6,31.6,29.99,SSE,153,0.0,6.0,48,0.00,,,0.00,0,HR-IXP-WINDi_r2_v1.2,2013-05-14 07:12:00,
2013-05-14 02:17:00,50.7,32.2,29.99,SSE,161,2.0,6.0,49,0.00,,,0.00,0,HR-IXP-WINDi_r2_v1.2,2013-05-14 07:17:00,
2013-05-14 02:23:00,50.7,32.2,29.98,East,94,0.0,6.0,49,0.00,,,0.00,0,HR-IXP-WINDi_r2_v1.2,2013-05-14 07:23:00,
2013-05-14 02:28:00,50.8,32.3,29.98,SSE,165,1.0,6.0,49,0.00,,,0.00,0,HR-IXP-WINDi_r2_v1.2,2013-05-14 07:28:00,
2013-05-14 02:33:00,50.9,32.4,29.97,SSE,163,0.0,6.0,49,0.00,,,0.00,0,HR-IXP-WINDi_r2_v1.2,2013-05-14 07:33:00,
2013-05-14 02:38:00,51.0,33.0,29.97,SSE,160,2.0,6.0,50,0.00,,,0.00,0,HR-IXP-WINDi_r2_v1.2,2013-05-14 07:38:00,
2013-05-14 02:43:00,51.0,33.5,29.97,ESE,114,5.0,6.0,51,0.00,,,0.00,0,HR-IXP-WINDi_r2_v1.2,2013-05-14 07:43:00,
2013-05-14 02:48:00,51.0,33.0,29.97,South,174,0.0,5.0,50,0.00,,,0.00,0,HR-IXP-WINDi_r2_v1.2,2013-05-14 07:48:00,
2013-05-14 02:54:00,51.1,34.1,29.97,South,180,2.0,5.0,52,0.00,,,0.00,0,HR-IXP-WINDi_r2_v1.2,2013-05-14 07:54:00,
2013-05-14 02:59:00,51.1,33.6,29.97,SSE,166,1.0,6.0,51,0.00,,,0.00,0,HR-IXP-WINDi_r2_v1.2,2013-05-14 07:59:00,
2013-05-14 03:04:00,51.2,34.1,29.97,SSE,159,1.0,6.0,52,0.00,,,0.00,0,HR-IXP-WINDi_r2_v1.2,2013-05-14 08:04:00,
2013-05-14 03:10:00,51.2,34.1,29.97,SSE,157,1.0,4.0,52,0.00,,,0.00,0,HR-IXP-WINDi_r2_v1.2,2013-05-14 08:10:00,
2013-05-14 03:15:00,51.2,34.6,29.96,SSE,157,0.0,4.0,53,0.00,,,0.00,0,HR-IXP-WINDi_r2_v1.2,2013-05-14 08:15:00,
2013-05-14 03:20:00,51.2,34.6,29.97,SE,138,1.0,6.0,53,0.00,,,0.00,0,HR-IXP-WINDi_r2_v1.2,2013-05-14 08:20:00,
2013-05-14 03:25:00,51.2,35.1,29.96,SSE,158,2.0,6.0,54,0.00,,,0.00,0,HR-IXP-WINDi_r2_v1.2,2013-05-14 08:25:00,
2013-05-14 03:30:00,51.2,35.6,29.96,SSE,160,2.0,4.0,55,0.00,,,0.00,0,HR-IXP-WINDi_r2_v1.2,2013-05-14 08:30:00,
2013-05-14 03:35:00,51.2,36.0,29.96,SSE,161,1.0,6.0,56,0.00,,,0.00,0,HR-IXP-WINDi_r2_v1.2,2013-05-14 08:35:00,
2013-05-14 03:41:00,51.2,36.5,29.96,SSE,161,2.0,6.0,57,0.00,,,0.00,0,HR-IXP-WINDi_r2_v1.2,2013-05-14 08:41:00,
2013-05-14 03:46:00,51.3,37.0,29.95,SSE,161,1.0,6.0,58,0.00,,,0.00,0,HR-IXP-WINDi_r2_v1.2,2013-05-14 08:46:00,
2013-05-14 03:51:00,51.4,37.5,29.95,SSE,161,2.0,7.0,59,0.00,,,0.00,0,HR-IXP-WINDi_r2_v1.2,2013-05-14 08:51:00,
2013-05-14 03:56:00,51.5,37.6,29.95,SSE,162,2.0,8.0,59,0.00,,,0.00,0,HR-IXP-WINDi_r2_v1.2,2013-05-14 08:56:00,
2013-05-14 04:01:00,51.6,38.1,29.95,SSE,162,0.0,8.0,60,0.00,,,0.00,0,HR-IXP-WINDi_r2_v1.2,2013-05-14 09:01:00,
2013-05-14 04:07:00,51.8,38.7,29.95,SSE,160,1.0,7.0,61,0.00,,,0.00,0,HR-IXP-WINDi_r2_v1.2,2013-05-14 09:07:00,
2013-05-14 04:12:00,51.8,38.3,29.94,SSE,159,1.0,7.0,60,0.00,,,0.00,0,HR-IXP-WINDi_r2_v1.2,2013-05-14 09:12:00,
2013-05-14 04:17:00,51.9,38.4,29.94,SSE,162,2.0,9.0,60,0.00,,,0.00,0,HR-IXP-WINDi_r2_v1.2,2013-05-14 09:17:00,
2013-05-14 04:22:00,52.1,39.0,29.94,South,173,0.0,9.0,61,0.00,,,0.00,0,HR-IXP-WINDi_r2_v1.2,2013-05-14 09:22:00,
2013-05-14 04:27:00,52.1,38.6,29.94,SSE,154,5.0,8.0,60,0.00,,,0.00,0,HR-IXP-WINDi_r2_v1.2,2013-05-14 09:27:00,
2013-05-14 04:33:00,52.2,39.1,29.94,SSE,165,2.0,7.0,61,0.00,,,0.00,0,HR-IXP-WINDi_r2_v1.2,2013-05-14 09:33:00,
2013-05-14 04:38:00,52.3,39.2,29.94,SSE,162,2.0,8.0,61,0.00,,,0.00,0,HR-IXP-WINDi_r2_v1.2,2013-05-14 09:38:00,
2013-05-14 04:43:00,52.3,39.2,29.93,SSE,163,5.0,8.0,61,0.00,,,0.00,0,HR-IXP-WINDi_r2_v1.2,2013-05-14 09:43:00,
2013-05-14 04:48:00,52.4,39.7,29.93,South,175,1.0,7.0,62,0.00,,,0.00,0,HR-IXP-WINDi_r2_v1.2,2013-05-14 09:48:00,
2013-05-14 04:54:00,52.4,39.3,29.93,SSE,158,1.0,9.0,61,0.00,,,0.00,0,HR-IXP-WINDi_r2_v1.2,2013-05-14 09:54:00,
2013-05-14 04:59:00,52.4,39.3,29.93,South,179,1.0,9.0,61,0.00,,,0.00,0,HR-IXP-WINDi_r2_v1.2,2013-05-14 09:59:00,
2013-05-14 05:04:00,52.4,39.7,29.93,South,169,2.0,7.0,62,0.00,,,0.00,0,HR-IXP-WINDi_r2_v1.2,2013-05-14 10:04:00,
2013-05-14 05:09:00,52.3,39.2,29.93,South,171,6.0,8.0,61,0.00,,,0.00,0,HR-IXP-WINDi_r2_v1.2,2013-05-14 10:09:00,
2013-05-14 05:14:00,52.3,39.2,29.93,South,170,4.0,8.0,61,0.00,,,0.00,0,HR-IXP-WINDi_r2_v1.2,2013-05-14 10:14:00,
2013-05-14 05:19:00,52.2,39.1,29.93,South,171,4.0,8.0,61,0.00,,,0.00,0,HR-IXP-WINDi_r2_v1.2,2013-05-14 10:19:00,
2013-05-14 05:24:00,52.2,39.1,29.92,South,169,8.0,8.0,61,0.00,,,0.00,0,HR-IXP-WINDi_r2_v1.2,2013-05-14 10:24:00,
2013-05-14 05:29:00,52.2,38.7,29.92,South,180,2.0,10.0,60,0.00,,,0.00,0,HR-IXP-WINDi_r2_v1.2,2013-05-14 10:29:00,
2013-05-14 05:34:00,52.3,38.8,29.92,SSE,151,7.0,10.0,60,0.00,,,0.00,0,HR-IXP-WINDi_r2_v1.2,2013-05-14 10:34:00,
2013-05-14 05:40:00,52.3,38.8,29.91,South,169,4.0,10.0,60,0.00,,,0.00,5,HR-IXP-WINDi_r2_v1.2,2013-05-14 10:40:00,
2013-05-14 05:45:00,52.4,38.9,29.91,South,169,12.0,12.0,60,0.00,,,0.00,7,HR-IXP-WINDi_r2_v1.2,2013-05-14 10:45:00,
2013-05-14 05:50:00,52.5,39.0,29.91,SE,134,6.0,12.0,60,0.00,,,0.00,11,HR-IXP-WINDi_r2_v1.2,2013-05-14 10:50:00,
2013-05-14 05:55:00,52.6,38.6,29.92,SE,143,6.0,16.0,59,0.00,,,0.00,12,HR-IXP-WINDi_r2_v1.2,2013-05-14 10:55:00,
2013-05-14 06:00:00,52.7,38.3,29.92,South,184,6.0,16.0,58,0.00,,,0.00,16,HR-IXP-WINDi_r2_v1.2,2013-05-14 11:00:00,
2013-05-14 06:06:00,52.8,38.4,29.91,SSE,153,9.0,11.0,58,0.00,,,0.00,21,HR-IXP-WINDi_r2_v1.2,2013-05-14 11:06:00,
2013-05-14 06:11:00,52.9,38.5,29.91,SSE,158,5.0,11.0,58,0.00,,,0.00,23,HR-IXP-WINDi_r2_v1.2,2013-05-14 11:11:00,
2013-05-14 06:16:00,53.1,38.7,29.91,SSE,159,6.0,11.0,58,0.00,,,0.00,26,HR-IXP-WINDi_r2_v1.2,2013-05-14 11:16:00,
2013-05-14 06:22:00,53.3,38.9,29.91,South,175,9.0,11.0,58,0.00,,,0.00,28,HR-IXP-WINDi_r2_v1.2,2013-05-14 11:22:00,
2013-05-14 06:27:00,53.5,38.6,29.91,SSE,153,5.0,13.0,57,0.00,,,0.00,30,HR-IXP-WINDi_r2_v1.2,2013-05-14 11:27:00,
2013-05-14 06:32:00,53.7,38.3,29.91,SE,146,5.0,13.0,56,0.00,,,0.00,35,HR-IXP-WINDi_r2_v1.2,2013-05-14 11:32:00,
2013-05-14 06:37:00,53.9,38.5,29.91,SW,219,4.0,11.0,56,0.00,,,0.00,40,HR-IXP-WINDi_r2_v1.2,2013-05-14 11:37:00,
2013-05-14 06:42:00,54.3,38.9,29.90,SSE,156,12.0,14.0,56,0.00,,,0.00,42,HR-IXP-WINDi_r2_v1.2,2013-05-14 11:42:00,
2013-05-14 06:47:00,54.5,38.6,29.90,SSE,165,7.0,14.0,55,0.00,,,0.00,42,HR-IXP-WINDi_r2_v1.2,2013-05-14 11:47:00,
2013-05-14 06:53:00,54.9,39.5,29.90,SSE,163,5.0,13.0,56,0.00,,,0.00,44,HR-IXP-WINDi_r2_v1.2,2013-05-14 11:53:00,
2013-05-14 06:58:00,55.1,39.2,29.90,South,186,12.0,12.0,55,0.00,,,0.00,67,HR-IXP-WINDi_r2_v1.2,2013-05-14 11:58:00,
2013-05-14 07:03:00,55.5,40.0,29.90,South,180,1.0,18.0,56,0.00,,,0.00,53,HR-IXP-WINDi_r2_v1.2,2013-05-14 12:03:00,
2013-05-14 07:08:00,55.9,39.9,29.89,South,180,6.0,18.0,55,0.00,,,0.00,53,HR-IXP-WINDi_r2_v1.2,2013-05-14 12:08:00,
2013-05-14 07:13:00,56.3,40.3,29.89,SSE,162,5.0,18.0,55,0.00,,,0.00,54,HR-IXP-WINDi_r2_v1.2,2013-05-14 12:13:00,
2013-05-14 07:18:00,56.7,40.7,29.89,SSW,213,1.0,18.0,55,0.00,,,0.00,56,HR-IXP-WINDi_r2_v1.2,2013-05-14 12:18:00,
2013-05-14 07:23:00,57.0,40.9,29.88,SE,131,2.0,16.0,55,0.00,,,0.00,58,HR-IXP-WINDi_r2_v1.2,2013-05-14 12:23:00,
2013-05-14 07:28:00,57.4,40.8,29.88,SSW,203,3.0,16.0,54,0.00,,,0.00,60,HR-IXP-WINDi_r2_v1.2,2013-05-14 12:28:00,
2013-05-14 07:34:00,57.7,41.6,29.88,SW,220,2.0,14.0,55,0.00,,,0.00,65,HR-IXP-WINDi_r2_v1.2,2013-05-14 12:34:00,
2013-05-14 07:39:00,58.1,41.5,29.88,South,180,5.0,17.0,54,0.00,,,0.00,65,HR-IXP-WINDi_r2_v1.2,2013-05-14 12:39:00,
2013-05-14 07:44:00,58.3,41.7,29.87,South,187,2.0,17.0,54,0.00,,,0.00,158,HR-IXP-WINDi_r2_v1.2,2013-05-14 12:44:00,
2013-05-14 07:49:00,58.6,42.0,29.87,SSE,160,8.0,13.0,54,0.00,,,0.00,134,HR-IXP-WINDi_r2_v1.2,2013-05-14 12:49:00,
2013-05-14 07:54:00,58.7,42.5,29.87,SSW,208,5.0,15.0,55,0.00,,,0.00,127,HR-IXP-WINDi_r2_v1.2,2013-05-14 12:54:00,
2013-05-14 07:59:00,58.9,42.2,29.87,SSE,166,8.0,16.0,54,0.00,,,0.00,134,HR-IXP-WINDi_r2_v1.2,2013-05-14 12:59:00,
2013-05-14 08:05:00,59.1,42.4,29.87,SSW,213,1.0,16.0,54,0.00,,,0.00,137,HR-IXP-WINDi_r2_v1.2,2013-05-14 13:05:00,
2013-05-14 08:10:00,59.3,42.6,29.86,South,188,2.0,17.0,54,0.00,,,0.00,135,HR-IXP-WINDi_r2_v1.2,2013-05-14 13:10:00,
2013-05-14 08:15:00,59.6,43.4,29.86,SSW,193,9.0,17.0,55,0.00,,,0.00,118,HR-IXP-WINDi_r2_v1.2,2013-05-14 13:15:00,
2013-05-14 08:20:00,60.0,44.2,29.85,South,191,7.0,14.0,56,0.00,,,0.00,98,HR-IXP-WINDi_r2_v1.2,2013-05-14 13:20:00,
2013-05-14 08:26:00,60.3,43.5,29.85,SSW,192,6.0,18.0,54,0.00,,,0.00,95,HR-IXP-WINDi_r2_v1.2,2013-05-14 13:26:00,
2013-05-14 08:31:00,60.7,44.4,29.85,SW,219,4.0,18.0,55,0.00,,,0.00,109,HR-IXP-WINDi_r2_v1.2,2013-05-14 13:31:00,
2013-05-14 08:36:00,61.2,44.4,29.84,SSE,159,8.0,14.0,54,0.00,,,0.00,109,HR-IXP-WINDi_r2_v1.2,2013-05-14 13:36:00,
2013-05-14 08:41:00,61.7,45.3,29.84,SSE,168,7.0,17.0,55,0.00,,,0.00,179,HR-IXP-WINDi_r2_v1.2,2013-05-14 13:41:00,
2013-05-14 08:46:00,62.2,45.8,29.84,South,190,5.0,17.0,55,0.00,,,0.00,176,HR-IXP-WINDi_r2_v1.2,2013-05-14 13:46:00,
2013-05-14 08:51:00,62.7,45.8,29.84,SSE,159,6.0,14.0,54,0.00,,,0.00,188,HR-IXP-WINDi_r2_v1.2,2013-05-14 13:51:00,
2013-05-14 08:57:00,63.0,46.5,29.84,South,170,5.0,13.0,55,0.00,,,0.00,206,HR-IXP-WINDi_r2_v1.2,2013-05-14 13:57:00,
2013-05-14 09:02:00,63.2,46.7,29.83,SW,223,5.0,13.0,55,0.00,,,0.00,306,HR-IXP-WINDi_r2_v1.2,2013-05-14 14:02:00,
2013-05-14 09:07:00,63.2,46.2,29.83,South,170,6.0,13.0,54,0.00,,,0.00,181,HR-IXP-WINDi_r2_v1.2,2013-05-14 14:07:00,
2013-05-14 09:12:00,63.6,46.6,29.83,South,186,2.0,12.0,54,0.00,,,0.00,573,HR-IXP-WINDi_r2_v1.2,2013-05-14 14:12:00,
2013-05-14 09:17:00,64.1,47.1,29.82,SW,220,3.0,11.0,54,0.00,,,0.00,673,HR-IXP-WINDi_r2_v1.2,2013-05-14 14:17:00,
2013-05-14 09:23:00,64.9,47.8,29.82,SSE,165,7.0,13.0,54,0.00,,,0.00,626,HR-IXP-WINDi_r2_v1.2,2013-05-14 14:23:00,
2013-05-14 09:28:00,65.4,47.8,29.82,South,175,10.0,13.0,53,0.00,,,0.00,628,HR-IXP-WINDi_r2_v1.2,2013-05-14 14:28:00,
2013-05-14 09:33:00,65.8,47.6,29.82,South,181,3.0,13.0,52,0.00,,,0.00,638,HR-IXP-WINDi_r2_v1.2,2013-05-14 14:33:00,
2013-05-14 09:38:00,66.0,47.8,29.82,South,184,3.0,13.0,52,0.00,,,0.00,649,HR-IXP-WINDi_r2_v1.2,2013-05-14 14:38:00,
2013-05-14 09:43:00,66.3,48.6,29.82,South,182,5.0,13.0,53,0.00,,,0.00,666,HR-IXP-WINDi_r2_v1.2,2013-05-14 14:43:00,
2013-05-14 09:49:00,66.7,49.0,29.82,SW,219,7.0,12.0,53,0.00,,,0.00,679,HR-IXP-WINDi_r2_v1.2,2013-05-14 14:49:00,
2013-05-14 09:54:00,67.2,50.4,29.82,South,178,11.0,12.0,55,0.00,,,0.00,691,HR-IXP-WINDi_r2_v1.2,2013-05-14 14:54:00,
2013-05-14 09:59:00,67.9,49.6,29.81,SW,226,2.0,15.0,52,0.00,,,0.00,707,HR-IXP-WINDi_r2_v1.2,2013-05-14 14:59:00,
2013-05-14 10:04:00,68.4,49.5,29.81,SSW,196,2.0,15.0,51,0.00,,,0.00,721,HR-IXP-WINDi_r2_v1.2,2013-05-14 15:04:00,
2013-05-14 10:10:00,69.0,51.1,29.81,SSE,155,4.0,11.0,53,0.00,,,0.00,735,HR-IXP-WINDi_r2_v1.2,2013-05-14 15:10:00,
2013-05-14 10:15:00,69.7,51.2,29.80,South,188,0.0,15.0,52,0.00,,,0.00,747,HR-IXP-WINDi_r2_v1.2,2013-05-14 15:15:00,
2013-05-14 10:20:00,70.3,51.8,29.80,SSW,194,4.0,15.0,52,0.00,,,0.00,758,HR-IXP-WINDi_r2_v1.2,2013-05-14 15:20:00,
2013-05-14 10:25:00,71.0,51.9,29.80,SSW,208,6.0,15.0,51,0.00,,,0.00,768,HR-IXP-WINDi_r2_v1.2,2013-05-14 15:25:00,
2013-05-14 10:30:00,71.6,53.0,29.80,South,190,1.0,16.0,52,0.00,,,0.00,777,HR-IXP-WINDi_r2_v1.2,2013-05-14 15:30:00,
2013-05-14 10:35:00,72.0,52.3,29.80,SW,219,7.0,16.0,50,0.00,,,0.00,791,HR-IXP-WINDi_r2_v1.2,2013-05-14 15:35:00,
2013-05-14 10:40:00,72.2,53.0,29.80,SW,217,3.0,12.0,51,0.00,,,0.00,796,HR-IXP-WINDi_r2_v1.2,2013-05-14 15:40:00,
2013-05-14 10:46:00,72.6,53.4,29.80,SSE,157,1.0,13.0,51,0.00,,,0.00,807,HR-IXP-WINDi_r2_v1.2,2013-05-14 15:46:00,
2013-05-14 10:51:00,72.7,54.0,29.79,SW,231,6.0,13.0,52,0.00,,,0.00,816,HR-IXP-WINDi_r2_v1.2,2013-05-14 15:51:00,
2013-05-14 10:56:00,73.0,53.8,29.79,West,277,5.0,10.0,51,0.00,,,0.00,823,HR-IXP-WINDi_r2_v1.2,2013-05-14 15:56:00,
2013-05-14 11:01:00,73.6,53.8,29.79,SSW,209,4.0,10.0,50,0.00,,,0.00,831,HR-IXP-WINDi_r2_v1.2,2013-05-14 16:01:00,
2013-05-14 11:06:00,73.9,53.5,29.79,SSW,195,7.0,10.0,49,0.00,,,0.00,842,HR-IXP-WINDi_r2_v1.2,2013-05-14 16:06:00,
2013-05-14 11:12:00,74.0,54.1,29.78,WSW,253,6.0,10.0,50,0.00,,,0.00,853,HR-IXP-WINDi_r2_v1.2,2013-05-14 16:12:00,
2013-05-14 11:17:00,74.1,54.2,29.78,NW,305,3.0,12.0,50,0.00,,,0.00,858,HR-IXP-WINDi_r2_v1.2,2013-05-14 16:17:00,
2013-05-14 11:22:00,74.3,55.0,29.78,South,169,7.0,12.0,51,0.00,,,0.00,865,HR-IXP-WINDi_r2_v1.2,2013-05-14 16:22:00,
2013-05-14 11:27:00,74.7,55.9,29.77,West,263,3.0,12.0,52,0.00,,,0.00,874,HR-IXP-WINDi_r2_v1.2,2013-05-14 16:27:00,
2013-05-14 11:32:00,75.2,54.1,29.77,SSW,193,7.0,10.0,48,0.00,,,0.00,879,HR-IXP-WINDi_r2_v1.2,2013-05-14 16:32:00,
2013-05-14 11:38:00,75.4,54.9,29.77,SSW,213,4.0,11.0,49,0.00,,,0.00,888,HR-IXP-WINDi_r2_v1.2,2013-05-14 16:38:00,
2013-05-14 11:43:00,76.0,55.4,29.77,WSW,257,4.0,11.0,49,0.00,,,0.00,893,HR-IXP-WINDi_r2_v1.2,2013-05-14 16:43:00,
2013-05-14 11:48:00,76.5,55.9,29.77,SSW,195,3.0,9.0,49,0.00,,,0.00,898,HR-IXP-WINDi_r2_v1.2,2013-05-14 16:48:00,
2013-05-14 11:53:00,77.1,55.3,29.77,WSW,246,4.0,10.0,47,0.00,,,0.00,900,HR-IXP-WINDi_r2_v1.2,2013-05-14 16:53:00,
2013-05-14 11:58:00,77.1,55.3,29.77,SSW,200,2.0,10.0,47,0.00,,,0.00,907,HR-IXP-WINDi_r2_v1.2,2013-05-14 16:58:00,
2013-05-14 12:03:00,77.2,56.5,29.77,SW,227,4.0,8.0,49,0.00,,,0.00,904,HR-IXP-WINDi_r2_v1.2,2013-05-14 17:03:00,
2013-05-14 12:09:00,77.5,56.2,29.77,WSW,242,5.0,9.0,48,0.00,,,0.00,912,HR-IXP-WINDi_r2_v1.2,2013-05-14 17:09:00,
2013-05-14 12:14:00,77.9,56.0,29.77,WNW,293,7.0,9.0,47,0.00,,,0.00,916,HR-IXP-WINDi_r2_v1.2,2013-05-14 17:14:00,
2013-05-14 12:19:00,78.0,56.1,29.77,SW,227,2.0,13.0,47,0.00,,,0.00,925,HR-IXP-WINDi_r2_v1.2,2013-05-14 17:19:00,
2013-05-14 12:24:00,78.5,57.1,29.77,North,355,0.0,13.0,48,0.00,,,0.00,919,HR-IXP-WINDi_r2_v1.2,2013-05-14 17:24:00,
2013-05-14 12:29:00,78.7,56.1,29.77,West,271,5.0,14.0,46,0.00,,,0.00,923,HR-IXP-WINDi_r2_v1.2,2013-05-14 17:29:00,
2013-05-14 12:34:00,78.6,56.0,29.77,WNW,286,1.0,14.0,46,0.00,,,0.00,925,HR-IXP-WINDi_r2_v1.2,2013-05-14 17:34:00,
2013-05-14 12:40:00,79.0,57.6,29.77,WSW,250,4.0,16.0,48,0.00,,,0.00,926,HR-IXP-WINDi_r2_v1.2,2013-05-14 17:40:00,
2013-05-14 12:45:00,79.2,56.6,29.77,SSW,197,6.0,16.0,46,0.00,,,0.00,926,HR-IXP-WINDi_r2_v1.2,2013-05-14 17:45:00,
2013-05-14 12:50:00,79.5,57.5,29.77,West,264,5.0,13.0,47,0.00,,,0.00,926,HR-IXP-WINDi_r2_v1.2,2013-05-14 17:50:00,
2013-05-14 12:55:00,80.0,57.9,29.77,West,261,1.0,10.0,47,0.00,,,0.00,926,HR-IXP-WINDi_r2_v1.2,2013-05-14 17:55:00,
2013-05-14 13:00:00,80.5,57.8,29.76,WSW,255,1.0,10.0,46,0.00,,,0.00,928,HR-IXP-WINDi_r2_v1.2,2013-05-14 18:00:00,
2013-05-14 13:05:00,80.9,56.9,29.76,WNW,300,2.0,9.0,44,0.00,,,0.00,928,HR-IXP-WINDi_r2_v1.2,2013-05-14 18:05:00,
2013-05-14 13:10:00,81.3,57.9,29.76,West,271,1.0,9.0,45,0.00,,,0.00,928,HR-IXP-WINDi_r2_v1.2,2013-05-14 18:10:00,
2013-05-14 13:15:00,81.3,57.3,29.76,West,262,3.0,10.0,44,0.00,,,0.00,918,HR-IXP-WINDi_r2_v1.2,2013-05-14 18:15:00,
2013-05-14 13:21:00,81.5,58.1,29.75,SW,229,4.0,10.0,45,0.00,,,0.00,919,HR-IXP-WINDi_r2_v1.2,2013-05-14 18:21:00,
2013-05-14 13:26:00,81.8,57.1,29.75,WNW,284,5.0,10.0,43,0.00,,,0.00,919,HR-IXP-WINDi_r2_v1.2,2013-05-14 18:26:00,
2013-05-14 13:31:00,82.0,57.9,29.75,WSW,254,2.0,13.0,44,0.00,,,0.00,907,HR-IXP-WINDi_r2_v1.2,2013-05-14 18:31:00,
2013-05-14 13:36:00,82.1,58.0,29.75,WNW,287,0.0,13.0,44,0.00,,,0.00,362,HR-IXP-WINDi_r2_v1.2,2013-05-14 18:36:00,
2013-05-14 13:42:00,82.3,58.2,29.75,WNW,289,8.0,13.0,44,0.00,,,0.00,274,HR-IXP-WINDi_r2_v1.2,2013-05-14 18:42:00,
2013-05-14 13:47:00,82.2,57.4,29.75,West,279,9.0,13.0,43,0.00,,,0.00,91,HR-IXP-WINDi_r2_v1.2,2013-05-14 18:47:00,
2013-05-14 13:52:00,82.1,57.3,29.75,SW,225,1.0,13.0,43,0.00,,,0.00,107,HR-IXP-WINDi_r2_v1.2,2013-05-14 18:52:00,
2013-05-14 13:57:00,82.2,57.4,29.75,West,273,2.0,10.0,43,0.00,,,0.00,84,HR-IXP-WINDi_r2_v1.2,2013-05-14 18:57:00,
2013-05-14 14:02:00,82.2,58.1,29.75,WNW,296,2.0,12.0,44,0.00,,,0.00,100,HR-IXP-WINDi_r2_v1.2,2013-05-14 19:02:00,
2013-05-14 14:07:00,82.4,58.9,29.75,West,280,0.0,12.0,45,0.00,,,0.00,88,HR-IXP-WINDi_r2_v1.2,2013-05-14 19:07:00,
2013-05-14 14:13:00,82.9,57.4,29.75,West,280,7.0,10.0,42,0.00,,,0.00,288,HR-IXP-WINDi_r2_v1.2,2013-05-14 19:13:00,
2013-05-14 14:18:00,82.9,57.4,29.75,WNW,283,9.0,10.0,42,0.00,,,0.00,295,HR-IXP-WINDi_r2_v1.2,2013-05-14 19:18:00,
2013-05-14 14:23:00,83.1,58.3,29.74,WNW,286,8.0,11.0,43,0.00,,,0.00,295,HR-IXP-WINDi_r2_v1.2,2013-05-14 19:23:00,
2013-05-14 14:28:00,83.3,57.8,29.74,WNW,292,8.0,13.0,42,0.00,,,0.00,220,HR-IXP-WINDi_r2_v1.2,2013-05-14 19:28:00,
2013-05-14 14:34:00,83.6,57.4,29.74,WNW,303,4.0,13.0,41,0.00,,,0.00,86,HR-IXP-WINDi_r2_v1.2,2013-05-14 19:34:00,
2013-05-14 14:39:00,83.8,58.9,29.74,NW,315,3.0,10.0,43,0.00,,,0.00,84,HR-IXP-WINDi_r2_v1.2,2013-05-14 19:39:00,
2013-05-14 14:44:00,83.6,58.7,29.74,NW,310,2.0,8.0,43,0.00,,,0.00,97,HR-IXP-WINDi_r2_v1.2,2013-05-14 19:44:00,
2013-05-14 14:49:00,83.1,60.1,29.74,WNW,286,0.0,7.0,46,0.00,,,0.00,111,HR-IXP-WINDi_r2_v1.2,2013-05-14 19:49:00,
2013-05-14 14:54:00,83.1,59.5,29.74,NW,309,0.0,6.0,45,0.00,,,0.00,151,HR-IXP-WINDi_r2_v1.2,2013-05-14 19:54:00,
2013-05-14 14:59:00,83.1,60.1,29.74,WNW,288,5.0,7.0,46,0.00,,,0.00,72,HR-IXP-WINDi_r2_v1.2,2013-05-14 19:59:00,
2013-05-14 15:04:00,83.0,58.8,29.74,NW,304,2.0,7.0,44,0.00,,,0.00,74,HR-IXP-WINDi_r2_v1.2,2013-05-14 20:04:00,
2013-05-14 15:10:00,82.8,59.2,29.74,NW,304,0.0,7.0,45,0.00,,,0.00,190,HR-IXP-WINDi_r2_v1.2,2013-05-14 20:10:00,
2013-05-14 15:15:00,82.8,59.2,29.74,WNW,284,0.0,5.0,45,0.00,,,0.00,172,HR-IXP-WINDi_r2_v1.2,2013-05-14 20:15:00,
2013-05-14 15:20:00,83.0,58.2,29.74,WNW,303,0.0,6.0,43,0.00,,,0.00,141,HR-IXP-WINDi_r2_v1.2,2013-05-14 20:20:00,
2013-05-14 15:25:00,83.4,58.5,29.74,WNW,297,0.0,6.0,43,0.00,,,0.00,93,HR-IXP-WINDi_r2_v1.2,2013-05-14 20:25:00,
2013-05-14 15:30:00,83.7,59.4,29.74,NW,305,2.0,8.0,44,0.00,,,0.00,127,HR-IXP-WINDi_r2_v1.2,2013-05-14 20:30:00,
2013-05-14 15:36:00,83.8,57.6,29.74,WNW,284,5.0,8.0,41,0.00,,,0.00,207,HR-IXP-WINDi_r2_v1.2,2013-05-14 20:36:00,
2013-05-14 15:41:00,84.0,57.7,29.74,WNW,287,8.0,8.0,41,0.00,,,0.00,139,HR-IXP-WINDi_r2_v1.2,2013-05-14 20:41:00,
2013-05-14 15:47:00,84.2,58.6,29.74,WNW,296,0.0,8.0,42,0.00,,,0.00,114,HR-IXP-WINDi_r2_v1.2,2013-05-14 20:47:00,
2013-05-14 15:52:00,84.5,56.1,29.74,WNW,282,5.0,8.0,38,0.00,,,0.00,236,HR-IXP-WINDi_r2_v1.2,2013-05-14 20:52:00,
2013-05-14 15:57:00,84.7,56.3,29.74,WNW,292,3.0,8.0,38,0.00,,,0.00,70,HR-IXP-WINDi_r2_v1.2,2013-05-14 20:57:00,
2013-05-14 16:02:00,84.9,56.4,29.75,WNW,292,6.0,10.0,38,0.00,,,0.00,603,HR-IXP-WINDi_r2_v1.2,2013-05-14 21:02:00,
2013-05-14 16:07:00,85.3,58.2,29.75,West,275,5.0,10.0,40,0.00,,,0.00,464,HR-IXP-WINDi_r2_v1.2,2013-05-14 21:07:00,
2013-05-14 16:13:00,85.5,56.2,29.75,NW,306,1.0,9.0,37,0.00,,,0.00,253,HR-IXP-WINDi_r2_v1.2,2013-05-14 21:13:00,
2013-05-14 16:18:00,85.8,55.7,29.75,WNW,300,3.0,9.0,36,0.00,,,0.00,250,HR-IXP-WINDi_r2_v1.2,2013-05-14 21:18:00,
2013-05-14 16:23:00,85.7,55.6,29.75,West,279,4.0,9.0,36,0.00,,,0.00,455,HR-IXP-WINDi_r2_v1.2,2013-05-14 21:23:00,
2013-05-14 16:28:00,85.7,55.6,29.75,WNW,285,0.0,10.0,36,0.00,,,0.00,302,HR-IXP-WINDi_r2_v1.2,2013-05-14 21:28:00,
2013-05-14 16:33:00,85.9,54.2,29.75,West,276,5.0,10.0,34,0.00,,,0.00,450,HR-IXP-WINDi_r2_v1.2,2013-05-14 21:33:00,
2013-05-14 16:38:00,86.0,52.7,29.74,NW,309,3.0,9.0,32,0.00,,,0.00,295,HR-IXP-WINDi_r2_v1.2,2013-05-14 21:38:00,
2013-05-14 16:44:00,86.1,53.6,29.75,WNW,302,1.0,9.0,33,0.00,,,0.00,232,HR-IXP-WINDi_r2_v1.2,2013-05-14 21:44:00,
2013-05-14 16:49:00,86.3,55.4,29.74,WNW,288,2.0,6.0,35,0.00,,,0.00,476,HR-IXP-WINDi_r2_v1.2,2013-05-14 21:49:00,
2013-05-14 16:54:00,86.7,55.0,29.75,WNW,298,2.0,6.0,34,0.00,,,0.00,424,HR-IXP-WINDi_r2_v1.2,2013-05-14 21:54:00,
2013-05-14 16:59:00,86.4,54.7,29.75,WNW,300,1.0,6.0,34,0.00,,,0.00,496,HR-IXP-WINDi_r2_v1.2,2013-05-14 21:59:00,
2013-05-14 17:04:00,86.4,53.9,29.74,West,279,3.0,9.0,33,0.00,,,0.00,483,HR-IXP-WINDi_r2_v1.2,2013-05-14 22:04:00,
2013-05-14 17:09:00,86.3,54.6,29.75,WNW,299,0.0,9.0,34,0.00,,,0.00,459,HR-IXP-WINDi_r2_v1.2,2013-05-14 22:09:00,
2013-05-14 17:15:00,86.6,55.7,29.74,WNW,303,0.0,8.0,35,0.00,,,0.00,454,HR-IXP-WINDi_r2_v1.2,2013-05-14 22:15:00,
2013-05-14 17:20:00,86.7,55.7,29.74,WNW,303,0.0,5.0,35,0.00,,,0.00,366,HR-IXP-WINDi_r2_v1.2,2013-05-14 22:20:00,
2013-05-14 17:25:00,86.6,54.9,29.74,WNW,300,2.0,4.0,34,0.00,,,0.00,313,HR-IXP-WINDi_r2_v1.2,2013-05-14 22:25:00,
2013-05-14 17:30:00,86.4,54.7,29.74,WNW,295,0.0,4.0,34,0.00,,,0.00,258,HR-IXP-WINDi_r2_v1.2,2013-05-14 22:30:00,
2013-05-14 17:36:00,86.5,57.1,29.74,WNW,295,0.0,3.0,37,0.00,,,0.00,269,HR-IXP-WINDi_r2_v1.2,2013-05-14 22:36:00,
2013-05-14 17:41:00,86.5,56.3,29.74,WNW,295,2.0,5.0,36,0.00,,,0.00,292,HR-IXP-WINDi_r2_v1.2,2013-05-14 22:41:00,
2013-05-14 17:46:00,86.6,56.4,29.74,WNW,294,0.0,5.0,36,0.00,,,0.00,325,HR-IXP-WINDi_r2_v1.2,2013-05-14 22:46:00,
2013-05-14 17:51:00,86.5,55.6,29.73,WNW,294,0.0,4.0,35,0.00,,,0.00,343,HR-IXP-WINDi_r2_v1.2,2013-05-14 22:51:00,
2013-05-14 17:56:00,86.6,57.2,29.73,WNW,294,0.0,4.0,37,0.00,,,0.00,186,HR-IXP-WINDi_r2_v1.2,2013-05-14 22:56:00,
2013-05-14 18:02:00,86.6,57.9,29.72,WNW,294,0.0,1.0,38,0.00,,,0.00,329,HR-IXP-WINDi_r2_v1.2,2013-05-14 23:02:00,
2013-05-14 18:07:00,86.6,57.2,29.72,NW,326,0.0,2.0,37,0.00,,,0.00,186,HR-IXP-WINDi_r2_v1.2,2013-05-14 23:07:00,
2013-05-14 18:12:00,86.4,57.8,29.72,NW,326,0.0,2.0,38,0.00,,,0.00,265,HR-IXP-WINDi_r2_v1.2,2013-05-14 23:12:00,
2013-05-14 18:17:00,86.1,55.2,29.71,NW,326,0.0,1.0,35,0.00,,,0.00,98,HR-IXP-WINDi_r2_v1.2,2013-05-14 23:17:00,
2013-05-14 18:23:00,86.1,54.4,29.71,NW,326,0.0,1.0,34,0.00,,,0.00,95,HR-IXP-WINDi_r2_v1.2,2013-05-14 23:23:00,
2013-05-14 18:28:00,86.0,55.1,29.70,NW,326,0.0,2.0,35,0.00,,,0.00,114,HR-IXP-WINDi_r2_v1.2,2013-05-14 23:28:00,
2013-05-14 18:33:00,85.9,55.8,29.69,NW,326,1.0,2.0,36,0.00,,,0.00,90,HR-IXP-WINDi_r2_v1.2,2013-05-14 23:33:00,
2013-05-14 18:38:00,85.6,54.8,29.69,SE,142,1.0,5.0,35,0.00,,,0.00,90,HR-IXP-WINDi_r2_v1.2,2013-05-14 23:38:00,
2013-05-14 18:44:00,85.4,56.1,29.69,SSE,150,0.0,5.0,37,0.00,,,0.00,51,HR-IXP-WINDi_r2_v1.2,2013-05-14 23:44:00,
2013-05-14 18:49:00,85.0,54.3,29.68,SSE,168,4.0,8.0,35,0.00,,,0.00,56,HR-IXP-WINDi_r2_v1.2,2013-05-14 23:49:00,
2013-05-14 18:54:00,84.7,54.8,29.68,South,180,0.0,8.0,36,0.00,,,0.00,84,HR-IXP-WINDi_r2_v1.2,2013-05-14 23:54:00,
2013-05-14 18:59:00,84.3,54.4,29.68,South,175,1.0,7.0,36,0.00,,,0.00,84,HR-IXP-WINDi_r2_v1.2,2013-05-14 23:59:00,
2013-05-14 19:05:00,84.1,56.4,29.68,South,175,2.0,7.0,39,0.00,,,0.00,58,HR-IXP-WINDi_r2_v1.2,2013-05-15 00:05:00,
2013-05-14 19:10:00,83.8,54.7,29.67,South,174,2.0,5.0,37,0.00,,,0.00,35,HR-IXP-WINDi_r2_v1.2,2013-05-15 00:10:00,
2013-05-14 19:15:00,83.5,55.2,29.68,South,175,4.0,5.0,38,0.00,,,0.00,21,HR-IXP-WINDi_r2_v1.2,2013-05-15 00:15:00,
2013-05-14 19:20:00,83.0,54.7,29.68,South,175,0.0,5.0,38,0.00,,,0.00,18,HR-IXP-WINDi_r2_v1.2,2013-05-15 00:20:00,
2013-05-14 19:25:00,82.4,54.2,29.68,South,175,0.0,5.0,38,0.00,,,0.00,30,HR-IXP-WINDi_r2_v1.2,2013-05-15 00:25:00,
2013-05-14 19:31:00,82.0,53.9,29.68,South,175,0.0,5.0,38,0.00,,,0.00,32,HR-IXP-WINDi_r2_v1.2,2013-05-15 00:31:00,
2013-05-14 19:36:00,81.7,54.3,29.68,South,175,0.0,2.0,39,0.00,,,0.00,23,HR-IXP-WINDi_r2_v1.2,2013-05-15 00:36:00,
2013-05-14 19:41:00,81.5,54.1,29.68,South,175,0.0,2.0,39,0.00,,,0.00,14,HR-IXP-WINDi_r2_v1.2,2013-05-15 00:41:00,
2013-05-14 19:46:00,81.3,54.6,29.68,South,175,1.0,2.0,40,0.00,,,0.00,7,HR-IXP-WINDi_r2_v1.2,2013-05-15 00:46:00,
2013-05-14 19:51:00,81.0,54.4,29.68,South,175,0.0,2.0,40,0.00,,,0.00,0,HR-IXP-WINDi_r2_v1.2,2013-05-15 00:51:00,
2013-05-14 19:56:00,80.7,54.1,29.68,South,175,0.0,1.0,40,0.00,,,0.00,0,HR-IXP-WINDi_r2_v1.2,2013-05-15 00:56:00,
2013-05-14 20:01:00,80.4,53.8,29.68,South,175,0.0,0.0,40,0.00,,,0.00,0,HR-IXP-WINDi_r2_v1.2,2013-05-15 01:01:00,
2013-05-14 20:07:00,79.9,54.1,29.68,South,175,0.0,0.0,41,0.00,,,0.00,0,HR-IXP-WINDi_r2_v1.2,2013-05-15 01:07:00,
2013-05-14 20:12:00,79.2,54.1,29.67,South,175,0.0,1.0,42,0.00,,,0.00,0,HR-IXP-WINDi_r2_v1.2,2013-05-15 01:12:00,
2013-05-14 20:18:00,78.8,53.7,29.67,South,175,0.0,1.0,42,0.00,,,0.00,0,HR-IXP-WINDi_r2_v1.2,2013-05-15 01:18:00,
2013-05-14 20:23:00,78.2,53.2,29.67,South,175,0.0,1.0,42,0.00,,,0.00,0,HR-IXP-WINDi_r2_v1.2,2013-05-15 01:23:00,
2013-05-14 20:28:00,77.7,52.7,29.67,South,175,1.0,4.0,42,0.00,,,0.00,0,HR-IXP-WINDi_r2_v1.2,2013-05-15 01:28:00,
2013-05-14 20:33:00,77.2,52.3,29.67,South,175,0.0,4.0,42,0.00,,,0.00,0,HR-IXP-WINDi_r2_v1.2,2013-05-15 01:33:00,
2013-05-14 20:38:00,76.8,51.9,29.67,South,175,0.0,4.0,42,0.00,,,0.00,0,HR-IXP-WINDi_r2_v1.2,2013-05-15 01:38:00,
2013-05-14 20:43:00,76.5,51.0,29.67,South,175,0.0,4.0,41,0.00,,,0.00,0,HR-IXP-WINDi_r2_v1.2,2013-05-15 01:43:00,
2013-05-14 20:48:00,76.2,51.4,29.67,South,175,0.0,4.0,42,0.00,,,0.00,0,HR-IXP-WINDi_r2_v1.2,2013-05-15 01:48:00,
2013-05-14 20:53:00,75.8,51.0,29.67,South,175,1.0,5.0,42,0.00,,,0.00,0,HR-IXP-WINDi_r2_v1.2,2013-05-15 01:53:00,
2013-05-14 20:58:00,75.5,50.8,29.67,South,173,0.0,6.0,42,0.00,,,0.00,0,HR-IXP-WINDi_r2_v1.2,2013-05-15 01:58:00,
2013-05-14 21:04:00,75.3,51.2,29.68,SSE,161,4.0,7.0,43,0.00,,,0.00,0,HR-IXP-WINDi_r2_v1.2,2013-05-15 02:04:00,
2013-05-14 21:09:00,75.3,52.4,29.68,South,169,4.0,7.0,45,0.00,,,0.00,0,HR-IXP-WINDi_r2_v1.2,2013-05-15 02:09:00,
2013-05-14 21:14:00,75.1,53.5,29.69,South,169,0.0,7.0,47,0.00,,,0.00,0,HR-IXP-WINDi_r2_v1.2,2013-05-15 02:14:00,
2013-05-14 21:19:00,74.9,54.4,29.69,South,169,2.0,5.0,49,0.00,,,0.00,0,HR-IXP-WINDi_r2_v1.2,2013-05-15 02:19:00,
2013-05-14 21:24:00,74.8,55.9,29.69,SSE,168,0.0,5.0,52,0.00,,,0.00,0,HR-IXP-WINDi_r2_v1.2,2013-05-15 02:24:00,
2013-05-14 21:29:00,74.7,57.4,29.69,South,175,0.0,5.0,55,0.00,,,0.00,0,HR-IXP-WINDi_r2_v1.2,2013-05-15 02:29:00,
2013-05-14 21:34:00,74.6,58.3,29.69,South,173,1.0,5.0,57,0.00,,,0.00,0,HR-IXP-WINDi_r2_v1.2,2013-05-15 02:34:00,
2013-05-14 21:39:00,74.5,59.7,29.70,South,172,0.0,6.0,60,0.00,,,0.00,0,HR-IXP-WINDi_r2_v1.2,2013-05-15 02:39:00,
2013-05-14 21:45:00,74.4,60.5,29.70,SSW,192,1.0,6.0,62,0.00,,,0.00,0,HR-IXP-WINDi_r2_v1.2,2013-05-15 02:45:00,
2013-05-14 21:50:00,74.5,60.6,29.70,South,188,0.0,5.0,62,0.00,,,0.00,0,HR-IXP-WINDi_r2_v1.2,2013-05-15 02:50:00,
2013-05-14 21:55:00,74.6,61.1,29.70,South,188,1.0,3.0,63,0.00,,,0.00,0,HR-IXP-WINDi_r2_v1.2,2013-05-15 02:55:00,
2013-05-14 22:00:00,74.7,61.2,29.70,South,188,1.0,3.0,63,0.00,,,0.00,0,HR-IXP-WINDi_r2_v1.2,2013-05-15 03:00:00,
2013-05-14 22:05:00,74.8,61.3,29.70,South,188,0.0,2.0,63,0.00,,,0.00,0,HR-IXP-WINDi_r2_v1.2,2013-05-15 03:05:00,
2013-05-14 22:11:00,74.8,61.3,29.70,South,188,0.0,2.0,63,0.00,,,0.00,0,HR-IXP-WINDi_r2_v1.2,2013-05-15 03:11:00,
2013-05-14 22:16:00,74.7,61.7,29.70,South,188,0.0,2.0,64,0.00,,,0.00,0,HR-IXP-WINDi_r2_v1.2,2013-05-15 03:16:00,
2013-05-14 22:21:00,74.7,61.7,29.70,South,188,1.0,2.0,64,0.00,,,0.00,0,HR-IXP-WINDi_r2_v1.2,2013-05-15 03:21:00,
2013-05-14 22:26:00,74.9,62.3,29.70,South,188,1.0,3.0,65,0.00,,,0.00,0,HR-IXP-WINDi_r2_v1.2,2013-05-15 03:26:00,
2013-05-14 22:31:00,75.1,62.0,29.70,SSW,200,0.0,3.0,64,0.00,,,0.00,0,HR-IXP-WINDi_r2_v1.2,2013-05-15 03:31:00,
2013-05-14 22:36:00,75.5,62.0,29.71,SW,219,0.0,6.0,63,0.00,,,0.00,0,HR-IXP-WINDi_r2_v1.2,2013-05-15 03:36:00,
2013-05-14 22:42:00,75.7,61.7,29.71,SW,223,1.0,6.0,62,0.00,,,0.00,0,HR-IXP-WINDi_r2_v1.2,2013-05-15 03:42:00,
2013-05-14 22:47:00,76.0,62.0,29.71,WSW,250,0.0,4.0,62,0.00,,,0.00,0,HR-IXP-WINDi_r2_v1.2,2013-05-15 03:47:00,
2013-05-14 22:52:00,76.0,62.0,29.71,WSW,255,0.0,3.0,62,0.00,,,0.00,0,HR-IXP-WINDi_r2_v1.2,2013-05-15 03:52:00,
2013-05-14 22:57:00,76.0,62.0,29.72,WSW,255,0.0,3.0,62,0.00,,,0.00,0,HR-IXP-WINDi_r2_v1.2,2013-05-15 03:57:00,
2013-05-14 23:01:00,76.1,62.1,29.71,West,268,2.0,3.0,62,0.00,,,0.00,0,HR-IXP-WINDi_r2_v1.2,2013-05-15 04:01:00,
2013-05-14 23:06:00,76.1,62.1,29.71,West,271,0.0,3.0,62,0.00,,,0.00,0,HR-IXP-WINDi_r2_v1.2,2013-05-15 04:06:00,
2013-05-14 23:11:00,76.0,62.0,29.71,SSW,209,0.0,2.0,62,0.00,,,0.00,0,HR-IXP-WINDi_r2_v1.2,2013-05-15 04:11:00,
2013-05-14 23:16:00,75.8,62.3,29.70,SSW,209,0.0,2.0,63,0.00,,,0.00,0,HR-IXP-WINDi_r2_v1.2,2013-05-15 04:16:00,
2013-05-14 23:22:00,75.5,62.0,29.70,SSW,209,0.0,1.0,63,0.00,,,0.00,0,HR-IXP-WINDi_r2_v1.2,2013-05-15 04:22:00,
2013-05-14 23:27:00,75.2,62.1,29.70,SSW,209,0.0,1.0,64,0.00,,,0.00,0,HR-IXP-WINDi_r2_v1.2,2013-05-15 04:27:00,
2013-05-14 23:32:00,74.9,61.8,29.70,SSW,209,0.0,1.0,64,0.00,,,0.00,0,HR-IXP-WINDi_r2_v1.2,2013-05-15 04:32:00,
2013-05-14 23:37:00,74.7,61.7,29.69,SSW,209,0.0,2.0,64,0.00,,,0.00,0,HR-IXP-WINDi_r2_v1.2,2013-05-15 04:37:00,
2013-05-14 23:43:00,74.4,61.4,29.69,SSW,209,1.0,2.0,64,0.00,,,0.00,0,HR-IXP-WINDi_r2_v1.2,2013-05-15 04:43:00,
2013-05-14 23:48:00,74.1,61.5,29.68,SSW,209,1.0,2.0,65,0.00,,,0.00,0,HR-IXP-WINDi_r2_v1.2,2013-05-15 04:48:00,
2013-05-14 23:53:00,73.9,61.8,29.68,SSW,209,0.0,1.0,66,0.00,,,0.00,0,HR-IXP-WINDi_r2_v1.2,2013-05-15 04:53:00,
2013-05-14 23:58:00,73.7,61.6,29.68,SSW,209,3.0,3.0,66,0.00,,,0.00,0,HR-IXP-WINDi_r2_v1.2,2013-05-15 04:58:00,